Location: Carrières
(48.9495°N, 2.0407°E)
Time: 18:25:09
(UTC+00:00)

Vanguard 1 - All Passes

Search period start: 23 April 2024 00:00
Search period end: 03 May 2024 00:00
Orbit: 653 x 3825 km, 34.2° (Epoch: 22 April)

Date Brightness Start Highest point End Pass type
(mag) Time Alt. Az. Time Alt. Az. Time Alt. Az.
23 Apr - 01:21:48 10° S 01:38:17 26° SE 01:52:01 10° E visible
23 Apr - 03:41:30 10° SW 04:01:21 42° SSE 04:14:48 10° ESE visible
23 Apr - 06:06:19 10° WSW 06:24:00 44° S 06:34:30 10° ESE daylight
23 Apr - 08:33:08 10° W 08:44:26 27° SW 08:51:42 10° SSE daylight
23 Apr - 23:32:04 10° SE 23:36:14 11° SE 23:40:21 10° ESE visible
24 Apr - 01:40:02 10° SSW 01:58:15 31° SSE 02:13:02 10° E visible
24 Apr - 04:01:17 10° SW 04:21:33 45° S 04:34:59 10° ESE visible
24 Apr - 06:26:46 10° WSW 06:44:02 43° SSW 06:54:18 10° SE daylight
24 Apr - 08:54:10 10° W 09:03:57 22° SW 09:10:39 10° S daylight
24 Apr - 23:44:34 10° SSE 23:55:50 16° SE 00:06:33 10° ESE visible
25 Apr - 01:58:47 10° SSW 02:18:17 36° SSE 02:33:44 10° E visible
25 Apr - 04:21:17 10° WSW 04:41:45 48° S 04:55:05 10° ESE daylight
25 Apr - 06:47:19 10° W 07:03:58 40° SSW 07:13:58 10° SE daylight
25 Apr - 09:15:37 10° W 09:23:22 17° SW 09:29:06 10° S daylight
26 Apr - 00:00:52 10° S 00:15:30 21° SE 00:29:12 10° E visible
26 Apr - 02:17:58 10° SW 02:38:22 41° SSE 02:54:13 10° E visible
26 Apr - 04:41:28 10° WSW 05:01:56 49° S 05:15:05 10° ESE daylight
26 Apr - 07:07:58 10° W 07:23:47 36° SSW 07:33:29 10° SE daylight
26 Apr - 09:38:06 10° WSW 09:42:39 12° SW 09:46:27 10° SSW daylight
27 Apr - 00:18:26 10° S 00:35:13 27° SE 00:50:47 10° E visible
27 Apr - 02:37:27 10° SW 02:58:31 45° SSE 03:14:32 10° E visible
27 Apr - 05:01:46 10° WSW 05:22:05 48° S 05:35:01 10° ESE daylight
27 Apr - 07:28:45 10° W 07:43:28 32° SSW 07:52:47 10° SSE daylight
27 Apr - 22:29:10 10° SE 22:33:31 11° SE 22:37:54 10° ESE visible
28 Apr - 00:36:43 10° SSW 00:55:02 32° SE 01:11:50 10° E visible
28 Apr - 02:57:12 10° SW 03:18:42 48° S 03:34:45 10° ESE visible
28 Apr - 05:22:11 10° WSW 05:42:09 47° SSW 05:54:50 10° SE daylight
28 Apr - 07:49:42 10° W 08:03:01 27° SW 08:11:50 10° SSE daylight
28 Apr - 22:41:56 10° SSE 22:52:54 16° SE 23:04:05 10° E visible
29 Apr - 00:55:29 10° SSW 01:14:57 37° SSE 01:32:34 10° E visible
29 Apr - 03:17:09 10° WSW 03:38:55 50° S 03:54:53 10° ESE visible
29 Apr - 05:42:42 10° W 06:02:08 44° SSW 06:14:31 10° SE daylight
29 Apr - 08:10:59 10° W 08:22:25 22° SW 08:30:27 10° S daylight
29 Apr - 22:58:20 10° S 23:12:20 21° SE 23:26:49 10° E visible
30 Apr - 01:14:39 10° SW 01:34:56 42° SSE 01:53:04 10° E visible
30 Apr - 03:37:15 10° WSW 03:59:07 51° S 04:14:56 10° ESE visible
30 Apr - 06:03:19 10° W 06:22:00 40° SSW 06:34:03 10° SE daylight
30 Apr - 08:32:50 10° W 08:41:41 17° SW 08:48:25 10° SSW daylight
30 Apr - 23:15:57 10° S 23:31:52 27° SE 23:48:28 10° E visible
01 May - 01:34:06 10° SW 01:55:00 46° SSE 02:13:27 10° E visible
01 May - 03:57:30 10° WSW 04:19:18 51° S 04:34:52 10° ESE visible
01 May - 06:24:02 10° W 06:41:43 36° SSW 06:53:23 10° SSE daylight
01 May - 08:56:15 10° WSW 09:00:48 12° WSW 09:04:46 10° SW daylight
01 May - 23:34:15 10° SSW 23:51:31 32° SE 00:09:35 10° E visible
02 May - 01:53:47 10° SW 02:15:10 50° SSE 02:33:43 10° E visible
02 May - 04:17:51 10° WSW 04:39:25 50° SSW 04:54:43 10° SE daylight
02 May - 06:44:55 10° W 07:01:18 31° SW 07:12:26 10° SSE daylight
02 May - 21:40:25 10° SSE 21:49:55 15° SE 22:00:17 10° E visible
